Location: Krakow
(50.0830°N, 19.9170°E)
Time: 19:28:34
(UTC+01:00)

Altair - Pass Details

Date: 03 December 2023
Orbit: 1501 x 1682 km, 47.2° (Epoch: 02 March)

Event Time Altitude Azimuth Distance (km) Brightness Sun altitude
Rises 13:06:02 0° 281° (W) 4,720 10.2 14.7°
Reaches altitude 10° 13:09:10 10° 278° (W) 3,715 9.8 14.5°
Maximum altitude 13:18:16 61° 202° (SSW) 1,686 8.5 13.9°
Drops below altitude 10° 13:27:12 10° 125° (SE) 3,648 9.6 13.3°
Sets 13:30:14 0° 122° (ESE) 4,630 10.1 13.1°
